Flag for U.S.A. Weather past 2 weeks in St. Croix Falls, Wisconsin, U.S.A.

Now
72 °F

Passing clouds.


Feels Like: 66 °F
Forecast: 70 / 85 °F
Wind: 8 mph from Southeast

Location: L O Simenstad Municipal Airport

Current Time: Sep 5, 2015 at 5:54:43 AM

Latest Report: Sep 5, 2015 at 5:15 AM


Visibility: 10 mi

Pressure: 30.00 "Hg

Humidity: 100%

Dew point: 72 °F

Location of St. Croix FallsLocation

Historic Weather in St. Croix Falls — Graph

°F

St. Croix Falls temperature yesterday

Maximum temperature yesterday: 86 °F (at 3:35 PM)
Minimum temperature yesterday: 69 °F (at 6:15 AM)
Average temperature yesterday: 77 °F

Past Weeks' High & Low Weather Summary

 TemperatureHumidityPressure
High86 °F (Sep 4, 3:35 PM)100% (Aug 21, 5:15 AM)30.24 "Hg (Aug 21, 5:15 AM)
Low45 °F (Aug 26, 6:35 AM)45% (Aug 26, 4:15 PM)29.69 "Hg (Aug 22, 8:35 PM)
Average67 °F83%29.99 "Hg
* Reported Aug 21 4:15 AM — Sep 5 4:55 AM, St. Croix Falls, Weather by CustomWeather, © 2015

Note: Actual official high and low records may vary slightly from our data, if they occured in-between our weather recording intervals... More about our weather records

Advertising

St. Croix Falls weather history for previous 24 hours

 ConditionsComfort  
Time TempWeatherWind HumidityBarometerVisibility
4:55 AM
Sat, Sep 5
72 °FClear.7 mph100%29.99 "Hg10 mi
4:35 AM72 °FClear.5 mph100%29.99 "Hg10 mi
4:15 AM73 °FClear.7 mph100%29.99 "Hg10 mi
3:55 AM72 °FClear.7 mph100%29.99 "Hg10 mi
3:15 AM73 °FClear.6 mph100%29.99 "Hg10 mi
2:55 AM73 °FClear.6 mph100%29.99 "Hg10 mi
2:35 AM74 °FClear.5 mph100%29.98 "Hg10 mi
2:15 AM73 °FClear.7 mph100%29.99 "Hg10 mi
1:55 AM74 °FClear.6 mph100%29.99 "Hg10 mi
1:35 AM74 °FClear.7 mph100%29.99 "Hg10 mi
1:15 AM73 °FClear.7 mph100%29.99 "Hg10 mi
12:55 AM74 °FClear.6 mph100%29.99 "Hg10 mi
12:35 AM74 °FClear.5 mph100%29.99 "Hg10 mi
12:15 AM74 °FClear.3 mph100%29.99 "Hg10 mi
11:55 PM
Fri, Sep 4
75 °FClear.3 mph99%29.99 "Hg10 mi
11:35 PM76 °FPassing clouds.5 mph87%29.98 "Hg10 mi
11:15 PM76 °FPassing clouds.6 mph85%29.98 "Hg10 mi
10:55 PM77 °FPassing clouds.6 mph83%29.98 "Hg10 mi
10:15 PM77 °FPassing clouds.8 mph82%29.97 "Hg10 mi
9:55 PM78 °FPassing clouds.8 mph80%29.97 "Hg10 mi
9:35 PM78 °FPassing clouds.8 mph82%29.97 "Hg10 mi
9:15 PM78 °FClear.9 mph81%29.97 "Hg10 mi
8:55 PM78 °FPassing clouds.7 mph80%29.96 "Hg10 mi
8:35 PM79 °FPartly sunny.9 mph79%29.96 "Hg10 mi
8:15 PM78 °FSunny.7 mph80%29.96 "Hg10 mi
7:55 PM79 °FSunny.8 mph77%29.96 "Hg10 mi
7:35 PM80 °FSunny.7 mph76%29.96 "Hg10 mi
7:15 PM81 °FSunny.7 mph72%29.96 "Hg10 mi
6:55 PM82 °FSunny.7 mph70%29.96 "Hg10 mi
6:35 PM83 °FSunny.10 mph68%29.96 "Hg10 mi
6:15 PM84 °FSunny.8 mph67%29.95 "Hg10 mi
5:55 PM84 °FSunny.10 mph66%29.95 "Hg10 mi
5:35 PM85 °FScattered clouds.8 mph66%29.94 "Hg10 mi
5:15 PM86 °FPartly sunny.9 mph62%29.94 "Hg10 mi
4:15 PM85 °FSunny.13 mph63%29.94 "Hg10 mi
3:55 PM85 °FSunny.16 mph62%29.94 "Hg10 mi
3:35 PM86 °FSunny.14 mph62%29.95 "Hg10 mi
3:15 PM86 °FSunny.13 mph64%29.95 "Hg10 mi
2:55 PM85 °FSunny.15 mph62%29.96 "Hg10 mi
2:35 PM85 °FSunny.13 mph64%29.97 "Hg10 mi
2:15 PM83 °FSunny.10 mph68%29.97 "Hg10 mi
1:55 PM85 °FSunny.8 mph64%29.98 "Hg10 mi
1:35 PM84 °FSunny.9 mph67%29.97 "Hg10 mi
1:15 PM83 °FSunny.14 mph67%29.97 "Hg10 mi
12:55 PM83 °FSunny.13 mph67%29.98 "Hg10 mi
12:35 PM82 °FSunny.12 mph68%29.97 "Hg10 mi
12:15 PM82 °FSunny.15 mph68%29.98 "Hg10 mi
11:50 AM81 °FSunny.13 mph69%29.97 "Hg10 mi
11:35 AM80 °FSunny.14 mph70%29.98 "Hg10 mi
11:15 AM80 °FSunny.10 mph71%29.99 "Hg10 mi
10:55 AM78 °FSunny.10 mph72%29.99 "Hg10 mi
10:35 AM78 °FSunny.12 mph73%29.99 "Hg10 mi
10:15 AM76 °FSunny.15 mph74%29.98 "Hg10 mi
9:55 AM75 °FSunny.13 mph76%29.99 "Hg10 mi
9:35 AM75 °FSunny.16 mph76%29.99 "Hg10 mi
9:15 AM74 °FSunny.13 mph78%29.99 "Hg10 mi
8:55 AM73 °FSunny.9 mph80%29.99 "Hg10 mi
8:35 AM72 °FSunny.10 mph81%29.99 "Hg10 mi
8:15 AM71 °FSunny.7 mph83%29.99 "Hg10 mi
7:55 AM71 °FSunny.9 mph85%29.99 "Hg10 mi
7:35 AM70 °FSunny.8 mph87%29.99 "Hg10 mi
7:15 AM69 °FClear.8 mph89%29.98 "Hg10 mi
6:55 AM69 °FClear.8 mph88%29.98 "Hg10 mi
6:35 AM69 °FClear.9 mph88%29.97 "Hg10 mi
6:15 AM69 °FClear.9 mph86%29.97 "Hg10 mi
5:55 AM69 °FClear.9 mph85%29.97 "Hg10 mi
5:35 AM69 °FClear.9 mph84%29.97 "Hg10 mi
5:15 AM69 °FClear.9 mph84%29.97 "Hg10 mi
Weather by CustomWeather, © 2015

See weather overviewHow to use our weather pages